Temp
73 75 82 82 83 83 83 83 83 83 83 82 83 83 83 83 83 83 83 83 84 84 84 84 84 84 84 83 83 83 83 83 84 83 82 82 82 82 82 82 82 81 82
76 78 81 83 83 83 83 83 83 83 83 83 83 83 83 83 83 83 83 84 84 84 84 84 83 84 83 83 83 83 83 83 83 83 83 83 82 82 82 83 82 81 83
76 77 79 83 83 83 83 83 83 83 83 83 83 83 83 83 83 83 83 83 83 83 84 84 84 83 83 83 83 83 83 83 83 83 82 78 79 83 82 82 82 82 82
76 75 76 82 83 83 83 83 83 83 83 83 83 83 82 83 83 84 84 84 84 84 83 83 83 84 83 83 83 83 82 83 83 82 77 79 81 83 83 82 82 81 81
75 75 79 82 83 83 83 83 83 83 83 83 83 83 83 83 83 84 83 83 84 84 83 83 84 83 83 83 83 83 83 83 83 82 76 74 74 82 82 82 81 81 81
74 75 80 83 83 83 83 83 83 83 83 83 83 83 83 84 84 84 84 84 84 84 83 83 84 84 83 82 81 83 83 83 84 79 76 75 74 82 82 82 82 81 81
73 75 77 82 83 83 83 83 83 83 83 83 83 83 84 84 84 84 84 84 83 84 83 83 83 83 83 82 83 83 83 84 78 76 75 73 74 81 82 82 82 81 81
74 75 77 82 82 83 83 83 83 83 83 83 83 83 83 83 83 84 83 83 83 83 83 83 83 83 83 83 83 83 83 84 82 77 76 73 75 81 82 82 81 81 81
75 74 74 76 81 83 83 83 83 83 83 83 83 83 83 83 83 83 83 83 83 83 83 83 83 83 83 82 83 83 83 84 76 77 79 73 77 81 82 82 81 81 81
72 73 74 75 76 75 77 83 83 83 83 83 83 83 83 83 83 83 81 82 83 83 83 83 83 83 83 82 82 83 84 84 77 76 77 75 78 81 82 82 81 81 81
72 73 73 74 74 74 75 79 81 84 84 82 82 83 80 75 76 79 81 81 83 83 83 83 83 83 83 83 83 83 84 80 77 75 76 79 79 81 82 82 81 81 81
68 70 72 72 74 74 78 74 74 78 76 76 75 75 74 75 74 78 80 83 83 83 83 83 83 83 82 78 77 80 77 77 77 78 75 79 80 81 82 82 81 81 81
67 69 70 70 74 74 75 74 73 74 75 76 75 74 74 75 74 75 74 75 74 79 76 77 77 77 77 76 76 77 78 78 77 77 79 80 80 81 82 82 81 81 81
68 69 71 71 74 73 74 73 73 74 74 74 76 76 74 74 73 73 73 73 73 73 74 74 74 75 76 77 77 77 78 78 76 76 77 81 81 81 82 81 81 81 81
68 70 71 72 71 72 73 73 74 73 74 74 75 75 75 74 73 74 74 74 74 74 74 74 74 74 75 76 77 77 78 78 78 77 76 81 81 81 82 82 82 81 81
70 70 72 73 72 70 69 70 72 74 74 72 74 74 75 73 72 73 73 74 72 73 73 73 72 72 73 74 75 77 77 77 77 77 76 75 81 80 81 82 82 82 81
71 73 72 71 71 69 70 71 72 74 74 72 73 74 75 73 72 72 71 71 72 73 72 72 72 72 73 74 73 75 76 77 77 76 76 76 76 80 81 81 82 82 82
72 72 73 77 74 70 69 69 71 72 71 70 72 73 74 74 74 72 73 71 72 72 71 70 69 68 69 70 72 73 74 75 76 76 76 76 76 79 80 81 81 81 82
73 72 72 72 72 71 70 69 69 71 71 71 73 74 75 75 75 73 72 72 73 71 71 69 69 67 66 66 69 72 74 74 75 79 77 76 76 77 78 80 81 81 82
74 73 72 72 72 71 70 69 69 70 74 73 73 73 73 73 74 71 70 71 70 71 70 69 69 67 67 66 70 73 73 75 75 73 74 77 76 77 77 77 78 79 81
75 72 72 71 72 71 69 68 68 69 71 71 71 73 72 72 72 70 70 70 70 71 72 71 68 67 66 66 66 68 70 71 71 72 73 73 74 77 75 77 76 76 79
75 74 74 73 72 73 74 70 71 71 72 72 71 71 72 72 72 70 68 68 68 69 70 70 67 65 64 65 65 66 63 66 69 72 72 73 73 74 76 75 74 75 74
76 75 75 75 75 76 75 72 72 72 72 70 69 69 70 71 72 70 69 67 67 67 69 69 68 67 65 67 68 67 63 60 63 68 71 71 71 70 72 74 76 76 76
77 78 78 76 76 76 74 75 72 71 70 71 70 70 71 71 70 70 69 68 67 66 68 70 70 68 65 66 68 69 67 66 63 65 65 68 70 71 70 71 73 74 74
80 79 78 76 75 75 74 77 75 73 74 71 71 71 71 71 71 71 70 70 68 67 70 71 71 70 69 68 67 66 66 66 65 66 67 70 71 69 70 70 72 74 76
81 80 79 76 75 76 75 76 74 73 74 71 72 71 71 69 68 70 71 70 70 70 71 72 71 70 69 69 69 68 68 68 66 66 65 67 67 71 70 70 70 71 73
MSLP
1014.13 1013.30 1013.28 1013.55 1013.55 1013.63 1013.83 1013.99 1014.21 1014.30 1014.56 1014.71 1014.86 1014.93 1015.20 1015.48 1015.71 1016.00 1016.05 1016.09 1016.18 1016.12 1016.39 1016.55 1016.74 1016.75 1016.85 1016.82 1017.23 1017.48 1017.54 1017.37 1017.17 1017.35 1017.40 1017.34 1017.59 1017.66 1017.52 1017.53 1017.66 1017.82 1017.75
1013.98 1013.96 1013.91 1013.95 1014.05 1014.18 1014.38 1014.49 1014.63 1014.80 1015.01 1015.15 1015.26 1015.34 1015.61 1015.73 1015.86 1016.10 1016.21 1016.32 1016.46 1016.49 1016.60 1016.72 1016.93 1016.90 1017.19 1017.22 1017.46 1017.81 1018.02 1017.74 1017.62 1017.52 1017.64 1017.56 1017.69 1017.84 1017.85 1017.87 1017.99 1018.03 1018.05
1014.38 1014.44 1014.24 1014.32 1014.43 1014.67 1014.87 1014.97 1015.12 1015.22 1015.32 1015.49 1015.57 1015.75 1015.97 1016.12 1016.11 1016.18 1016.29 1016.51 1016.66 1016.83 1016.94 1017.00 1017.20 1017.27 1017.43 1017.47 1017.55 1017.92 1018.23 1018.15 1017.99 1017.93 1017.99 1017.99 1017.91 1017.97 1018.07 1018.13 1018.21 1018.25 1018.33
1014.56 1014.74 1014.69 1014.69 1014.79 1015.05 1015.23 1015.33 1015.50 1015.61 1015.68 1015.83 1015.96 1016.26 1016.43 1016.53 1016.59 1016.71 1016.74 1016.78 1016.84 1016.94 1017.24 1017.45 1017.57 1017.62 1017.80 1017.80 1017.77 1017.94 1018.42 1018.45 1018.36 1018.38 1018.30 1018.33 1018.17 1018.10 1018.12 1018.25 1018.35 1018.49 1018.56
1014.82 1015.00 1014.85 1014.92 1015.12 1015.37 1015.53 1015.65 1015.83 1015.98 1016.02 1016.10 1016.33 1016.57 1016.71 1016.90 1017.02 1017.20 1017.24 1017.21 1017.20 1017.24 1017.38 1017.72 1017.96 1018.03 1018.17 1018.16 1018.16 1018.15 1018.21 1018.35 1018.45 1018.43 1018.69 1018.64 1018.51 1018.41 1018.40 1018.49 1018.61 1018.62 1018.67
1015.41 1015.40 1015.25 1015.21 1015.42 1015.63 1015.79 1016.09 1016.14 1016.38 1016.48 1016.54 1016.56 1016.88 1017.15 1017.37 1017.60 1017.61 1017.67 1017.67 1017.74 1017.77 1017.80 1017.85 1018.15 1018.31 1018.45 1018.43 1018.36 1018.24 1018.22 1018.24 1018.23 1018.41 1018.73 1018.79 1018.85 1018.59 1018.57 1018.63 1018.71 1019.01 1018.99
1015.80 1015.76 1015.64 1015.41 1015.73 1016.00 1016.05 1016.34 1016.47 1016.56 1016.72 1017.01 1017.08 1017.19 1017.42 1017.58 1018.00 1018.00 1018.20 1018.26 1018.21 1018.23 1018.30 1018.31 1018.35 1018.49 1018.49 1018.59 1018.61 1018.43 1018.21 1018.10 1018.13 1018.23 1018.60 1018.94 1018.84 1018.70 1018.62 1018.56 1018.72 1018.84 1019.15
1016.08 1016.14 1016.02 1016.16 1016.22 1016.48 1016.50 1016.74 1016.94 1016.88 1016.78 1017.33 1017.45 1017.54 1017.68 1017.88 1018.06 1018.31 1018.47 1018.62 1018.72 1018.66 1018.70 1018.76 1018.68 1018.72 1018.68 1018.63 1018.58 1018.56 1018.42 1018.22 1018.11 1018.36 1018.52 1018.79 1018.90 1018.65 1018.63 1018.71 1018.59 1018.73 1018.92
1016.49 1016.55 1016.64 1016.76 1016.64 1016.94 1017.03 1016.97 1017.19 1017.41 1017.38 1017.65 1017.96 1018.00 1018.08 1018.21 1018.34 1018.62 1018.71 1018.68 1018.92 1018.96 1018.96 1018.99 1018.90 1018.93 1018.85 1018.75 1018.59 1018.49 1018.44 1018.28 1018.42 1018.36 1018.40 1018.64 1018.69 1018.59 1018.58 1018.65 1018.78 1018.74 1018.79
1017.10 1017.16 1017.15 1017.19 1017.24 1017.54 1017.70 1017.56 1017.62 1017.78 1017.92 1018.14 1018.30 1018.39 1018.42 1018.58 1018.60 1018.71 1018.78 1018.83 1018.85 1019.00 1019.05 1019.17 1019.07 1018.98 1018.95 1018.94 1018.79 1018.48 1018.35 1018.18 1018.31 1018.59 1018.39 1018.31 1018.48 1018.56 1018.48 1018.52 1018.67 1018.80 1018.72
1017.86 1017.79 1017.76 1017.77 1017.96 1018.12 1018.13 1018.01 1018.25 1018.15 1018.22 1018.54 1018.49 1018.59 1018.78 1018.91 1019.04 1019.14 1018.93 1019.02 1019.05 1019.07 1019.17 1019.19 1019.15 1019.06 1018.98 1018.66 1018.62 1018.38 1018.19 1018.02 1018.05 1018.23 1018.22 1018.25 1018.24 1018.37 1018.37 1018.37 1018.48 1018.63 1018.72
1018.39 1018.35 1018.28 1018.49 1018.45 1018.53 1018.59 1018.66 1018.58 1018.58 1018.79 1018.81 1018.87 1018.85 1018.97 1018.97 1019.15 1019.15 1019.04 1019.00 1019.05 1019.03 1019.10 1019.02 1019.01 1018.86 1018.83 1018.80 1018.63 1018.25 1018.09 1017.93 1017.82 1017.88 1018.07 1018.17 1018.07 1018.04 1018.09 1018.25 1018.26 1018.40 1018.60
1018.88 1018.87 1018.78 1018.74 1018.64 1018.90 1018.87 1019.00 1018.95 1018.89 1018.87 1018.71 1018.79 1018.76 1018.88 1018.84 1018.97 1019.09 1019.09 1019.17 1019.21 1019.10 1019.06 1018.96 1018.96 1018.92 1018.72 1018.67 1018.61 1018.24 1017.83 1017.75 1017.51 1017.54 1017.52 1017.77 1017.91 1017.92 1017.99 1018.06 1018.13 1018.13 1018.23
1019.17 1019.21 1019.07 1018.99 1019.05 1019.27 1019.20 1019.27 1019.29 1019.21 1019.10 1018.93 1018.73 1018.75 1018.95 1019.00 1019.04 1019.17 1019.18 1019.34 1019.28 1019.17 1019.08 1019.11 1019.20 1018.86 1018.62 1018.37 1018.17 1018.32 1017.95 1017.60 1017.35 1017.22 1017.16 1017.23 1017.45 1017.49 1017.63 1017.72 1017.86 1017.89 1017.88
1019.20 1019.27 1019.22 1019.14 1019.34 1019.48 1019.48 1019.57 1019.48 1019.37 1019.28 1019.27 1019.15 1019.01 1019.17 1019.22 1019.28 1019.32 1019.32 1019.16 1018.94 1018.96 1018.97 1018.85 1018.86 1018.74 1018.58 1018.41 1018.18 1018.01 1018.05 1017.80 1017.50 1017.30 1017.11 1017.05 1016.98 1017.11 1017.20 1017.15 1017.31 1017.36 1017.47
1018.86 1018.98 1018.97 1018.94 1019.21 1019.59 1019.80 1019.74 1019.52 1019.48 1019.49 1019.49 1019.21 1019.09 1019.19 1019.25 1019.40 1019.43 1019.47 1019.41 1019.33 1019.11 1018.81 1018.92 1018.87 1018.61 1018.41 1018.28 1018.05 1017.76 1017.63 1017.49 1017.37 1017.26 1017.09 1016.96 1016.81 1016.74 1016.74 1016.75 1016.74 1016.80 1016.82
1018.27 1018.56 1018.66 1018.65 1018.96 1019.30 1019.35 1019.39 1019.35 1019.27 1019.34 1019.55 1019.19 1019.12 1018.85 1019.16 1019.53 1019.76 1019.63 1019.61 1019.39 1019.15 1019.06 1018.67 1018.09 1018.35 1018.41 1018.27 1018.13 1017.80 1017.61 1017.29 1017.11 1016.96 1016.79 1016.64 1016.49 1016.41 1016.33 1016.33 1016.24 1016.20 1016.12
1018.00 1018.26 1018.38 1018.40 1018.60 1018.86 1018.99 1019.06 1019.06 1019.05 1019.02 1018.94 1018.76 1018.70 1018.69 1018.63 1018.81 1019.07 1019.09 1019.08 1019.06 1019.14 1018.56 1017.98 1017.67 1017.86 1018.16 1018.31 1018.10 1017.65 1017.37 1017.10 1016.68 1016.47 1016.37 1016.15 1015.98 1015.87 1015.82 1015.71 1015.63 1015.59 1015.60
1017.40 1017.90 1018.26 1018.53 1018.68 1018.95 1019.02 1019.15 1019.14 1018.99 1018.77 1018.49 1018.43 1018.34 1018.10 1018.24 1018.22 1018.52 1018.79 1018.81 1018.64 1018.87 1018.94 1018.89 1017.57 1018.51 1018.42 1018.16 1017.99 1017.52 1017.05 1016.59 1016.33 1015.75 1015.55 1015.44 1015.32 1015.29 1015.20 1014.97 1014.84 1014.80 1014.74
1017.13 1017.65 1018.01 1018.14 1018.25 1018.56 1018.77 1018.93 1018.89 1018.59 1018.17 1018.22 1017.90 1017.76 1017.70 1017.89 1017.92 1018.26 1018.55 1018.76 1019.22 1019.43 1019.17 1018.63 1018.70 1018.82 1018.71 1018.55 1018.20 1017.66 1017.03 1016.22 1015.64 1015.68 1015.62 1014.95 1014.65 1014.63 1014.53 1014.36 1014.13 1014.03 1013.92
1016.57 1017.02 1017.05 1017.37 1017.50 1017.99 1018.46 1018.77 1018.80 1018.62 1018.22 1018.27 1017.94 1017.91 1018.02 1018.21 1018.11 1018.15 1018.18 1018.34 1018.86 1018.94 1018.31 1018.65 1018.81 1018.84 1018.33 1018.27 1018.56 1017.62 1016.66 1016.09 1015.76 1015.50 1015.03 1015.02 1014.62 1014.31 1014.25 1014.01 1013.77 1013.68 1013.50
1015.73 1016.00 1016.66 1016.90 1017.14 1017.46 1017.81 1017.86 1018.06 1018.01 1017.93 1017.69 1017.47 1017.28 1017.62 1018.07 1018.11 1018.23 1018.32 1018.51 1018.59 1018.83 1018.66 1018.76 1018.96 1018.91 1018.87 1018.50 1018.47 1018.00 1017.21 1016.24 1015.68 1015.31 1015.06 1014.92 1014.78 1014.51 1014.13 1013.85 1013.62 1013.19 1013.09
1015.08 1015.43 1015.82 1016.02 1016.39 1016.88 1017.45 1018.01 1017.98 1018.07 1017.91 1017.85 1017.72 1017.58 1017.20 1017.73 1017.90 1018.07 1018.55 1018.68 1018.88 1018.95 1019.06 1018.92 1018.98 1019.11 1019.10 1018.24 1018.04 1018.12 1017.83 1017.47 1016.56 1015.37 1014.84 1014.50 1014.52 1014.56 1014.36 1014.01 1013.41 1012.94 1012.58
1013.78 1013.94 1014.58 1015.56 1016.40 1017.01 1017.42 1017.46 1017.44 1017.89 1018.13 1017.82 1017.94 1017.87 1017.54 1017.29 1017.68 1018.00 1018.29 1018.60 1018.70 1018.99 1018.83 1018.74 1018.64 1018.73 1019.04 1018.71 1018.21 1017.89 1017.78 1017.69 1017.34 1015.81 1015.18 1014.68 1014.47 1014.09 1013.97 1013.72 1013.46 1012.86 1012.45
1013.16 1013.99 1014.79 1016.01 1016.74 1017.03 1017.35 1017.70 1018.00 1018.05 1017.77 1017.55 1017.80 1017.98 1017.82 1017.26 1016.95 1017.17 1017.45 1017.76 1018.07 1018.36 1018.41 1018.48 1018.35 1018.34 1018.50 1018.36 1018.25 1017.96 1017.81 1017.52 1017.24 1016.90 1015.23 1014.57 1014.47 1013.97 1013.52 1013.25 1013.00 1012.63 1012.13
1012.90 1014.13 1015.29 1016.13 1016.26 1016.40 1016.91 1017.35 1017.68 1017.67 1017.87 1017.92 1017.70 1018.11 1017.87 1017.44 1017.19 1017.09 1017.13 1017.37 1018.04 1018.26 1018.49 1017.93 1017.68 1017.90 1017.82 1017.82 1017.86 1017.64 1017.74 1017.65 1017.17 1016.72 1015.72 1014.67 1014.27 1013.65 1013.20 1012.75 1012.27 1012.07 1011.74
Wind_Speed
3 4 17 19 20 19 20 20 19 19 18 19 18 18 18 17 17 15 15 15 15 16 16 15 14 14 15 18 15 13 11 13 13 12 11 14 11 10 11 9 10 6 8
4 8 15 17 18 19 19 19 18 18 18 18 17 17 17 17 17 15 15 15 15 15 16 15 14 15 14 16 15 13 11 12 13 12 10 11 12 11 11 10 9 6 7
8 8 10 16 17 18 18 17 17 16 18 18 16 17 16 15 16 15 15 14 15 15 14 15 14 14 12 14 15 13 10 9 10 11 10 3 4 10 10 11 10 9 8
5 5 6 15 16 17 17 16 16 15 16 16 15 15 14 14 15 13 13 13 13 14 13 13 13 13 12 13 14 13 9 9 9 8 3 2 6 11 10 10 11 9 8
6 4 10 16 15 16 16 15 15 15 15 15 15 14 12 13 13 13 12 10 12 12 12 12 11 11 9 9 8 8 6 7 6 5 2 1 2 8 10 9 9 9 8
5 4 13 16 16 15 16 15 15 14 13 13 14 13 11 12 11 11 11 10 10 10 11 11 9 8 7 5 4 3 2 6 8 5 4 4 3 8 11 10 9 7 8
5 4 5 13 15 15 15 14 14 15 14 12 12 12 12 11 9 9 8 8 7 7 7 7 6 6 6 3 3 2 2 1 3 4 5 4 4 9 11 11 9 10 8
6 5 3 11 14 13 15 14 13 12 15 12 11 11 11 10 9 8 7 6 5 3 3 4 4 4 4 2 3 4 6 4 5 5 5 4 7 9 10 10 11 10 10
5 5 4 3 11 12 12 14 13 12 13 12 9 10 9 8 8 7 5 5 2 1 3 5 6 5 5 4 4 6 6 7 2 4 6 4 10 11 11 11 11 11 10
4 4 4 4 5 5 4 11 12 11 12 10 8 8 8 6 5 5 3 1 1 3 4 6 8 10 10 9 7 8 7 7 2 3 4 5 13 14 13 13 12 12 11
2 3 3 4 4 5 6 6 7 9 9 6 6 5 5 3 2 2 3 2 3 4 5 7 10 10 11 12 10 11 11 3 3 4 3 9 14 15 15 14 13 13 13
1 1 2 2 3 5 4 5 4 5 3 2 2 2 1 1 2 3 3 3 5 5 6 5 9 11 9 3 4 8 3 4 3 3 3 10 14 16 15 14 14 14 14
1 1 2 2 1 4 1 2 2 2 2 1 3 3 3 2 2 2 2 2 2 4 2 2 4 3 5 3 4 4 4 4 3 3 5 10 13 15 16 14 15 15 16
3 3 3 4 2 1 2 1 3 2 2 3 2 2 1 1 2 2 2 2 2 2 4 3 3 4 4 5 4 4 5 4 3 3 5 9 12 16 17 17 16 16 17
6 5 5 4 1 1 3 3 3 3 3 4 4 4 2 2 2 3 2 1 1 1 1 2 3 4 4 5 5 5 5 5 5 3 3 12 13 15 16 17 17 18 18
8 7 6 6 2 1 3 4 4 3 3 4 4 4 5 3 3 3 3 3 3 3 2 3 4 4 4 4 5 5 5 4 5 5 4 5 13 15 17 18 18 19 21
11 10 9 7 4 5 6 5 4 3 3 3 4 5 6 4 3 2 3 3 4 3 4 2 4 3 4 4 5 5 5 5 5 5 5 4 5 13 16 17 18 20 20
10 12 11 9 7 7 6 5 4 4 4 4 4 4 4 5 5 4 3 1 2 0 3 2 3 4 2 1 4 5 4 5 7 7 5 5 5 6 9 17 19 20 21
13 12 11 8 7 7 6 4 5 6 5 4 4 4 7 5 7 4 3 4 3 3 2 5 7 1 3 5 4 4 6 6 8 7 7 6 6 6 6 11 16 18 20
11 10 9 9 8 7 5 4 4 5 6 4 5 4 6 5 6 4 3 2 3 2 4 8 8 1 3 4 5 6 8 8 7 4 6 6 5 6 6 8 7 8 18
11 11 12 12 11 7 3 3 4 4 3 2 4 4 5 2 4 5 4 4 4 6 8 7 4 3 2 1 2 4 5 6 6 5 4 4 5 6 6 6 5 5 6
15 15 12 13 11 10 7 3 3 3 4 4 3 4 4 4 5 5 4 4 5 3 4 6 4 3 3 3 3 1 4 5 3 3 4 4 6 4 5 6 6 6 6
16 15 15 16 14 11 9 2 1 2 2 2 2 4 4 2 5 4 4 3 2 2 4 4 4 5 4 3 3 1 3 4 3 2 3 4 5 4 5 7 7 7 6
19 18 18 14 12 9 6 7 7 5 4 3 2 2 5 4 1 2 3 4 4 3 4 4 4 5 2 5 3 3 4 2 4 9 2 3 5 5 6 5 6 7 6
17 15 14 10 7 6 7 8 6 7 5 1 1 5 6 5 5 3 2 2 2 3 5 5 6 5 4 4 3 2 2 2 4 6 15 11 7 5 5 5 6 7 9
14 11 9 7 8 9 9 9 8 7 6 4 3 2 4 4 5 6 7 4 4 5 8 8 7 6 6 4 4 4 4 5 7 7 10 12 12 10 5 5 5 5 7
Wind_Direction
45 88 98 98 95 96 97 99 99 97 99 100 103 104 106 109 110 110 108 109 110 104 104 106 107 101 108 105 105 107 116 114 113 112 116 112 110 113 106 103 102 100 105
107 95 106 101 97 98 100 99 99 99 101 99 101 106 113 113 112 114 112 112 113 108 110 106 100 108 109 109 114 116 123 119 115 116 125 121 132 130 125 120 111 113 121
100 112 107 104 100 100 99 98 98 100 100 100 101 106 111 113 112 109 111 111 108 108 111 114 113 115 115 114 115 116 125 118 112 121 116 89 136 135 139 136 136 134 130
115 119 116 105 105 104 104 104 106 105 103 103 103 106 111 112 111 111 115 119 120 116 111 108 112 111 118 117 118 124 137 133 129 116 113 153 140 146 144 137 138 138 132
80 113 122 115 112 109 106 106 107 108 109 109 108 112 111 106 108 116 111 118 121 114 115 108 109 108 100 103 110 128 158 176 198 165 217 134 129 157 152 152 149 148 152
91 100 123 122 117 112 108 106 107 109 110 110 110 111 108 107 113 117 115 109 111 112 113 111 103 97 94 105 110 123 222 232 233 200 173 194 202 174 162 159 163 168 169
93 77 93 118 119 118 110 112 112 112 104 107 111 110 108 110 112 112 105 113 108 109 106 102 94 88 83 53 15 326 351 32 141 150 158 198 204 202 182 172 170 169 179
96 81 114 127 122 119 119 117 112 115 108 103 104 99 107 108 115 114 115 112 96 90 54 37 41 28 54 20 355 340 342 346 146 130 143 178 229 203 186 187 181 187 191
31 51 52 86 124 124 122 112 107 100 96 98 99 101 103 107 109 115 119 107 112 3 359 349 337 339 337 350 332 341 340 338 194 170 178 187 220 212 206 197 201 196 196
54 69 67 65 79 61 52 98 97 99 96 95 102 97 100 104 117 125 111 94 196 291 323 329 324 324 326 325 329 312 311 298 258 246 222 192 208 216 214 208 207 210 207
70 66 34 85 71 59 44 63 61 86 92 83 81 88 64 60 36 147 154 232 262 289 307 321 316 319 315 318 318 310 301 269 248 217 211 215 206 215 219 215 217 216 215
179 59 354 25 57 52 39 37 35 26 42 61 39 12 350 295 269 268 278 247 262 275 287 308 310 307 310 299 302 302 286 256 235 217 215 225 208 215 224 223 216 220 226
183 329 269 293 348 67 330 33 5 27 332 346 261 274 259 218 256 280 274 310 316 296 299 311 313 298 301 289 300 299 284 268 246 224 211 220 217 221 232 230 226 225 230
189 245 298 297 348 20 303 352 323 349 325 302 286 286 263 201 246 259 287 271 275 269 300 329 319 303 317 297 284 278 297 288 255 231 220 233 217 223 231 234 233 235 234
191 215 244 263 312 311 304 313 292 320 319 317 323 326 294 303 306 310 303 265 261 300 268 312 306 304 303 302 304 313 307 309 296 267 243 243 225 231 236 239 236 233 237
191 206 221 241 197 145 271 278 288 298 321 315 310 296 299 258 255 314 309 318 334 330 341 360 312 287 286 287 286 281 283 276 258 261 256 264 253 240 234 238 239 234 234
193 196 211 219 195 192 229 247 262 281 305 272 281 284 280 266 296 291 309 320 312 303 27 323 272 340 335 324 302 304 300 285 261 239 241 242 256 254 250 245 243 245 238
189 194 207 215 207 206 220 235 252 265 252 260 275 277 285 245 206 234 251 250 306 11 179 254 256 219 274 308 307 295 280 276 276 268 248 230 229 242 246 249 250 242 241
187 191 203 207 213 205 227 244 255 263 273 272 257 250 239 198 194 186 228 241 149 128 72 319 299 85 341 307 290 285 279 266 268 275 262 247 230 231 235 247 247 250 244
188 187 196 198 209 198 197 228 252 249 254 238 247 230 235 180 190 147 211 203 90 162 147 241 272 360 235 268 295 286 276 272 267 252 262 261 253 251 241 236 245 247 250
187 184 191 189 202 178 172 189 237 242 248 240 272 242 238 206 209 181 194 180 159 188 201 225 257 265 294 170 273 265 269 263 274 272 260 273 269 259 255 257 245 245 253
189 197 194 203 200 199 203 191 185 209 252 239 253 276 226 204 231 238 232 240 193 208 237 232 234 332 288 211 254 317 321 327 323 277 286 291 285 293 286 279 262 248 245
195 197 200 204 204 202 197 141 257 357 314 299 276 295 291 257 250 257 281 276 294 264 246 240 231 224 276 310 227 202 325 280 308 307 273 270 300 301 298 296 287 274 262
199 197 198 200 203 207 187 201 197 207 230 254 308 296 310 311 261 236 266 269 280 249 273 263 228 230 212 272 323 239 263 244 300 313 324 299 273 275 275 285 294 288 268
198 198 200 191 192 202 194 216 225 246 250 275 292 306 304 307 299 257 206 266 316 317 286 272 277 239 224 255 237 308 310 273 240 264 303 309 293 267 256 250 265 278 287
202 192 175 170 191 181 189 210 217 226 249 289 274 283 289 302 315 341 326 314 332 297 275 268 257 254 261 251 269 271 270 289 295 293 292 296 295 296 269 253 243 255 268